Tracking 17154 objects as of 2-August-2015
HD Live streaming from Space Station

INSAT 1C

Track INSAT 1C now!
INSAT 1C is classified as:


NORAD ID: 19330
Int'l Code: 1988-063A
Perigee: 35,765.2 km
Apogee: 35,840.9 km
Inclination: 15.0 °
Period: 1,436.6 minutes
Semi major axis: 42174 km
RCS: 1.9952 m2 (large)
Launch date: July 21, 1988
Source: India (IND)
Your satellite tracking list
Your tracking list is empty





NASA's NSSDC Master Catalog

Two Line Element Set (TLE):
1 19330U 88063A   15213.02767751 -.00000219  00000-0  00000+0 0  9990
2 19330 014.9749 003.5233 0008970 106.1685 296.2941 01.00238536 80378

Source of the keplerian elements: AFSPC

N2YO: 212